Location: Unspecified
(0.0000°N, 0.0000°E)
Time: 08:32:49
(UTC+00:00)

deb NOAA 5 - Pass Details

Date: 15 February 2026
Orbit: 747 x 1048 km, 102.9° (Epoch: 14 March)

Event Time Altitude Azimuth Distance (km) Brightness Sun altitude
Rises 19:18:34 0° 342° (NNW) 3,691 ? -15.7°
Reaches altitude 10° 19:22:28 10° 318° (NW) 2,684 ? -16.7°
Maximum altitude 19:25:17 14° 290° (WNW) 2,375 ? -17.4°
Drops below altitude 10° 19:28:03 10° 261° (W) 2,588 ? -18.0°
Sets 19:31:42 0° 235° (SW) 3,461 ? -18.9°
